Location: Ripley
(48.3812°N, 115.4473°W)
Time: 10:34:25
(UTC+00:00)

EO-88 - Pass Details

Date: 28 June 2022
Orbit: 453 x 461 km, 97.3° (Epoch: 13 August)

Event Time Altitude Azimuth Distance (km) Brightness Sun altitude
Exits shadow 06:17:40 - 228° (SW) 1,988 ? -15.7°
Reaches altitude 10° 06:19:16 10° 248° (WSW) 1,631 ? -15.8°
Maximum altitude 06:20:36 12° 271° (W) 1,527 ? -15.9°
Drops below altitude 10° 06:21:56 10° 293° (WNW) 1,637 ? -16.0°
Sets 06:25:13 0° 327° (NNW) 2,520 ? -16.1°
